This is the latest recevied weather packets stored in our database for station/object KI6PPU. If no packets are shown the sender has not sent any weather packets the latest 10 day(s).
| Time | Temp. | Humidity | Pressure | Rain* | Wind** | Luminosity | Snow |
|---|---|---|---|---|---|---|---|
| 1778181513 | 25° C | 63% | 1020.9 hPa | 0 mm | - | 766 W/m² | - |
| 1778181209 | 25° C | 64% | 1020.8 hPa | 0 mm | - | 776 W/m² | - |
| 1778180906 | 25° C | 66% | 1020.8 hPa | 0 mm | - | 837 W/m² | - |
| 1778180604 | 25° C | 67% | 1021 hPa | 0 mm | - | 789 W/m² | - |
| 1778180303 | 25° C | 63% | 1020.9 hPa | 0 mm | - | 750 W/m² | - |
| 1778179999 | 25° C | 62% | 1021.1 hPa | 0 mm | - | 744 W/m² | - |
| 1778179696 | 25° C | 65% | 1021.1 hPa | 0 mm | - | 724 W/m² | - |
| 1778179395 | 25° C | 70% | 1021.1 hPa | 0 mm | - | 810 W/m² | - |
| 1778179091 | 25° C | 63% | 1021.3 hPa | 0 mm | - | 820 W/m² | - |
| 1778178788 | 25° C | 64% | 1021.2 hPa | 0 mm | - | 848 W/m² | - |
| 1778178486 | 25° C | 63% | 1021 hPa | 0 mm | - | 728 W/m² | - |
| 1778178181 | 25° C | 63% | 1021.2 hPa | 0 mm | - | 618 W/m² | - |
| 1778177877 | 25° C | 62% | 1021.1 hPa | 0 mm | - | 765 W/m² | - |
| 1778177574 | 25° C | 68% | 1021 hPa | 0 mm | - | 894 W/m² | - |
| 1778177270 | 25.56° C | 64% | 1021 hPa | 0 mm | - | 865 W/m² | - |
| 1778176967 | 25.56° C | 68% | 1020.8 hPa | 0 mm | - | 829 W/m² | - |
| 1778176663 | 25° C | 64% | 1021.1 hPa | 0 mm | - | 843 W/m² | - |
| 1778176360 | 25° C | 62% | 1021.2 hPa | 0 mm | - | 826 W/m² | - |
| 1778176057 | 24.44° C | 65% | 1021.1 hPa | 0 mm | - | 871 W/m² | - |
| 1778175755 | 25° C | 63% | 1021 hPa | 0 mm | - | 881 W/m² | - |
| 1778175453 | 24.44° C | 64% | 1021 hPa | 0 mm | - | 778 W/m² | - |
| 1778175149 | 24.44° C | 66% | 1021 hPa | 0 mm | - | 743 W/m² | - |
| 1778174846 | 24.44° C | 64% | 1020.9 hPa | 0 mm | - | 752 W/m² | - |
| 1778174543 | 23.89° C | 65% | 1021.1 hPa | 0 mm | - | 595 W/m² | - |
| 1778174243 | 23.89° C | 68% | 1021.1 hPa | 0 mm | - | 684 W/m² | - |
* Rain latest hour (hover to see other rain measurements)
** Current wind speed in m/s (hover to see current wind gust speed)